www.pogodaiklimat.ru

Погода и климат >> Архив погоды >> Финляндия >> Муонио Лаукукеро


ПОГОДА в Муонио Лаукукеро

  • Прогноз погоды в Муонио Лаукукеро
  • Монитор погоды в Муонио Лаукукеро

АРХИВ ПОГОДЫ в Муонио Лаукукеро

Время (UTC), дата Ветер
(напр.,м/с)
 
Видим.   Явления Облачность Т
(С)
Тd
(С)
f
(%)
Тe
(С)
Тes
(С)
Комфортность P
(гПа)
Po
(гПа)
Тmin
(С)
Tmax
(С)
R
(мм)
R24
(мм)
S
(см)
13 9.09 ЮЗ 7 н/о н/о +9.7 +3.7 66 +6 +6 1023.6 933.7
14 9.09 ЮЗ 7 н/о н/о +9.7 +3.3 64 +6 +6 1023.6 933.7
15 9.09 ЮЗ 7-8
{9}
н/о н/о +9.5 +3.0 64 +6 +6 1023.7 933.7
16 9.09 ЮЗ 7 н/о н/о +9.1 +3.2 67 +5 +5 1023.8 933.8
17 9.09 ЮЗ 7 н/о н/о +8.8 +3.7 70 +5 +5 1024.0 933.8
18 9.09 ЮЗ 7-8
{9}
н/о н/о +8.3 +3.6 72 +4 +4 1024.3 933.9 +5.1 +10.5
19 9.09 ЮЗ 8 н/о н/о +8.0 +4.2 77 +3 +3 1024.2 933.7
20 9.09 ЮЗ 8 н/о н/о +7.2 +3.5 77 +2 +2 1024.5 933.8
21 9.09 ЮЗ 8-10
{10}
н/о н/о +6.7 +3.9 82 +2 +2 1024.6 933.7
22 9.09 ЮЗ 8 н/о н/о +6.1 +4.2 88 +1 +1 1024.6 933.5
23 9.09 ЮЗ 8 н/о н/о +6.3 +4.6 89 +1 +1 1024.4 933.4
00 10.09 ЮЗ 9-10
{10}
н/о н/о +5.5 +4.2 91 -1 -1 1024.5 933.2
01 10.09 ЮЗ 9-10
{11}
н/о н/о +6.2 +3.7 84 +1 +1 1023.9 932.9
02 10.09 ЮЗ 9 н/о н/о +5.8 +4.9 94 -0 -0 1023.7 932.6
03 10.09 ЮЗ 9-11
{11}
н/о н/о +5.3 +5.3 100 -1 -1 1023.6 932.4
04 10.09 ЮЗ 10 н/о н/о +5.3 +5.3 100 -1 -1 1023.3 932.1
05 10.09 ЮЗ 10-13
{13}
н/о н/о +5.5 +5.4 99 -1 -1 1023.2 932.1
06 10.09 ЮЗ 10-13
{13}
н/о н/о +6.9 +4.9 87 +1 +1 1022.7 932.0 +5.0 +8.3
07 10.09 ЮЗ 9 н/о н/о +6.8 +4.9 88 +1 +1 1022.7 932.0
08 10.09 ЮЗ 11 н/о н/о +7.0 +6.9 99 +1 +1 1022.7 932.1
09 10.09 ЮЗ 8-11
{14}
н/о н/о +8.0 +8.0 100 +3 +3 1022.1 931.8
10 10.09 ЮЗ 9-12
{12}
н/о н/о +9.7 +8.8 94 +5 +5 1021.4 931.7
11 10.09 ЮЗ 9 н/о н/о +9.1 +9.1 100 +4 +4 1021.5 931.6
12 10.09 Ю 8-10
{11}
н/о н/о +9.2 +9.2 100 +5 +5 1021.1 931.3
13 10.09 ЮЗ 9 н/о н/о +8.8 +8.8 100 +4 +4 1021.1 931.2
14 10.09 ЮЗ 8-10
{11}
н/о н/о +8.6 +8.6 100 +4 +4 1020.8 930.9
15 10.09 ЮЗ 7-9
{11}
н/о н/о +8.6 +8.6 100 +4 +4 1020.6 930.6
16 10.09 Ю 9-12
{12}
н/о н/о +8.7 +8.7 100 +4 +4 1020.0 930.1
17 10.09 ЮЗ 8 н/о н/о +8.8 +8.8 100 +4 +4 1019.6 929.8
18 10.09 Ю 9-11
{11}
н/о н/о +8.6 +8.6 100 +4 +4 1018.8 929.0 +6.3 +9.7
19 10.09 Ю 9 н/о н/о +8.8 +8.8 100 +4 +4 1018.4 928.7
20 10.09 Ю 9 н/о н/о +8.9 +8.9 100 +4 +4 1018.0 928.3
21 10.09 Ю 8-11
{12}
н/о н/о +9.0 +9.0 100 +4 +4 1017.4 927.9
22 10.09 Ю 10-11
{12}
н/о н/о +9.1 +9.1 100 +4 +4 1017.1 927.6
23 10.09 ЮЗ 11 н/о н/о +9.2 +9.2 100 +4 +4 1016.7 927.3
00 11.09 ЮЗ 10-13
{14}
н/о н/о +9.3 +9.3 100 +4 +4 1016.2 926.8
01 11.09 ЮЗ 9 н/о н/о +9.2 +9.2 100 +4 +4 1015.9 926.6
02 11.09 ЮЗ 10 н/о н/о +9.3 +9.3 100 +4 +4 1015.2 925.9
03 11.09 ЮЗ 12-16
{16}
н/о н/о +9.4 +9.4 100 +4 +4 1014.6 925.4
04 11.09 ЮЗ 9 н/о н/о +9.6 +9.6 100 +5 +5 1014.6 925.5
05 11.09 Ю 9 н/о н/о +9.9 +9.9 100 +5 +5 1014.0 925.0
06 11.09 Ю 10-13
{14}
н/о н/о +10.3 +10.3 100 +6 +6 1013.5 924.7 +8.6 +10.3
07 11.09 Ю 9-13
{14}
н/о н/о +10.3 +10.3 100 +6 +6 1013.3 924.5
08 11.09 Ю 8-11
{11}
н/о н/о +10.3 +10.3 100 +6 +6 1013.2 924.4
09 11.09 Ю 8-11
{11}
н/о н/о +10.0 +10.0 100 +6 +6 1013.1 924.3
10 11.09 Ю 9 н/о н/о +10.0 +10.0 100 +5 +5 1012.8 923.9
11 11.09 Ю 7 н/о н/о +10.3 +10.3 100 +6 +6 1012.1 923.4
12 11.09 Ю 8-10
{10}
н/о н/о +10.8 +10.8 100 +7 +7 1011.1 922.6
13 11.09 Ю 9 н/о н/о +10.7 +10.7 100 +6 +6 1010.4 922.0
14 11.09 ЮВ 11 н/о н/о +11.1 +11.1 100 +7 +7 1009.2 921.0
15 11.09 ЮВ 10-12
{13}
н/о н/о +11.9 +11.9 100 +8 +8 1008.1 920.2
16 11.09 ЮВ 10 н/о н/о +11.9 +11.9 100 +8 +8 1007.3 919.5
17 11.09 Ю 8-11
{20}
н/о н/о +11.4 +11.4 100 +8 +8 1006.6 918.7
18 11.09 Ю 10-12
{12}
н/о н/о +11.2 +11.2 100 +7 +7 1006.2 918.3 +10.0 +12.1
19 11.09 Ю 9-11
{12}
н/о н/о +10.3 +10.3 100 +6 +6 1005.7 917.6
20 11.09 Ю 10-13
{13}
н/о н/о +10.1 +10.1 100 +5 +5 1005.2 917.1
21 11.09 Ю 9-11
{13}
н/о н/о +10.1 +10.1 100 +6 +6 1004.4 916.3
22 11.09 Ю 11 н/о н/о +9.8 +9.8 100 +5 +5 1004.2 916.0
23 11.09 Ю 10 н/о н/о +9.5 +9.5 100 +5 +5 1003.6 915.4
00 12.09 Ю 10-13
{13}
н/о н/о +9.4 +9.4 100 +4 +4 1003.1 914.9
01 12.09 Ю 10-13
{13}
н/о н/о +9.4 +9.4 100 +4 +4 1002.7 914.5
02 12.09 Ю 10-12
{13}
н/о н/о +9.3 +9.3 100 +4 +4 1002.2 914.0
03 12.09 Ю 9-12
{13}
н/о н/о +9.3 +9.3 100 +5 +5 1001.5 913.4
04 12.09 Ю 9 н/о н/о +9.3 +9.3 100 +5 +5 1001.1 913.0
05 12.09 Ю 8-10
{11}
н/о н/о +9.2 +9.2 100 +5 +5 1000.8 912.7
06 12.09 Ю 8-10
{11}
н/о н/о +9.1 +9.1 100 +4 +4 1000.3 912.2 +9.1 +11.2
07 12.09 Ю 9 н/о н/о +9.0 +9.0 100 +4 +4 999.9 911.9
08 12.09 Ю 9 н/о н/о +9.1 +9.1 100 +4 +4 999.5 911.6
09 12.09 Ю 8-11
{11}
н/о н/о +9.2 +9.2 100 +5 +5 999.0 911.1
10 12.09 ЮВ 8 н/о н/о +9.3 +9.3 100 +5 +5 998.5 910.7
11 12.09 Ю 10 н/о н/о +9.2 +9.2 100 +4 +4 998.0 910.2
12 12.09 Ю 9-12
{14}
н/о н/о +9.0 +9.0 100 +4 +4 997.6 909.8
13 12.09 Ю 9 н/о н/о +8.5 +8.5 100 +3 +3 997.3 909.3
14 12.09 Ю 8 н/о н/о +8.6 +8.6 100 +4 +4 996.5 908.7
15 12.09 ЮЗ 9-11
{11}
н/о н/о +8.5 +8.5 100 +3 +3 996.1 908.3
16 12.09 З 12 н/о н/о +8.3 +8.3 100 +2 +2 995.6 907.7
17 12.09 З 13-16
{17}
н/о н/о +7.3 +7.3 100 +1 +1 996.2 908.0
18 12.09 З 13 н/о н/о +6.4 +6.4 100 -1 -1 996.6 908.1 +6.4 +9.4
19 12.09 З 13 н/о н/о +6.0 +6.0 100 -1 -1 996.9 908.3
20 12.09 З 12 н/о н/о +6.1 +6.1 100 -1 -1 997.3 908.6
21 12.09 З 8-9
{11}
н/о н/о +6.1 +6.1 100 0 0 997.6 909.0
22 12.09 З 10 н/о н/о +5.8 +5.8 100 -1 -1 997.6 908.8
23 12.09 З 11 н/о н/о +5.0 +5.0 100 -2 -2 997.8 908.8
00 13.09 СЗ 11-13
{13}
н/о н/о +4.3 +2.9 91 -3 -3 998.1 908.8
01 13.09 З 10 н/о н/о +3.9 +2.5 91 -3 -3 998.2 908.8
02 13.09 СЗ 9-10
{11}
н/о н/о +3.1 +1.9 92 -4 -4 998.4 908.7
03 13.09 СЗ 8-9
{10}
н/о н/о +2.6 +2.1 97 -4 -4 998.7 908.8
04 13.09 СЗ 7 н/о н/о +2.7 +1.8 94 -4 -4 998.6 908.8
05 13.09 СЗ 5 н/о н/о +2.8 +2.1 95 -3 -3 998.6 908.9
06 13.09 СЗ 5-6
{7}
н/о н/о +2.6 +2.6 100 -3 -3 999.0 909.1 +2.4 +6.4
07 13.09 С 2-4
{6}
н/о н/о +3.9 +3.9 100 +1 +1 998.9 909.4
08 13.09 С 5-8
{8}
н/о н/о +4.3 +4.3 100 -1 -1 999.2 909.8
09 13.09 С 7-8
{9}
н/о н/о +4.2 +4.2 100 -2 -2 999.7 910.2
10 13.09 С 5-7
{8}
н/о н/о +5.2 +5.2 100 0 0 999.6 910.5
11 13.09 С 4 н/о н/о +5.0 +5.0 100 +1 +1 1000.2 911.0
12 13.09 СЗ 3-5
{10}
н/о н/о +4.7 +3.1 89 +1 +1 1000.9 911.4
13 13.09 С 3 н/о н/о +5.2 +4.0 92 +2 +2 1001.0 911.7
14 13.09 СЗ 7 н/о н/о +5.3 +4.1 92 -0 -0 1001.1 911.9
15 13.09 С 8-11
{12}
н/о н/о +4.9 +2.0 81 -1 -1 1001.7 912.2
16 13.09 СЗ 9 н/о н/о +4.5 +2.5 87 -2 -2 1002.2 912.7
17 13.09 С 10 н/о н/о +3.7 +2.6 93 -3 -3 1003.1 913.2
18 13.09 С 8-10
{12}
н/о н/о +3.0 +2.4 96 -4 -4 1004.1 913.9 +2.6 +5.9
19 13.09 С 8-9
{10}
н/о н/о +2.6 +1.9 95 -4 -4 1004.6 914.2
20 13.09 СЗ 10-12
{12}
н/о н/о +2.5 +1.5 93 -5 -5 1005.1 914.6
21 13.09 С 10-11
{12}
н/о н/о +1.6 +1.2 97 -6 -6 1005.9 915.1
22 13.09 С 9 н/о н/о +1.5 +0.7 94 -6 -6 1006.3 915.4
23 13.09 С 10 н/о н/о +1.1 +0.1 93 -7 -7 1006.7 915.7
00 14.09 С 9-10
{12}
н/о н/о +0.7 +0.1 96 -7 -7 1007.2 915.9
01 14.09 СЗ 10 н/о н/о +0.6 -0.4 93 -8 -8 1007.4 916.1
02 14.09 С 10-10
{12}
н/о н/о +0.3 -0.5 94 -8 -8 1007.9 916.5
03 14.09 С 8-10
{11}
н/о н/о +0.8 -0.7 90 -7 -7 1007.9 916.7
04 14.09 С 7 н/о н/о +0.6 -0.8 90 -6 -6 1008.3 916.9
05 14.09 СЗ 4 н/о н/о +0.2 -0.3 96 -5 -5 1008.8 917.3
06 14.09 С 2-3
{5}
н/о н/о +0.9 -0.3 92 -3 -3 1009.0 917.7 -0.7 +3.2
07 14.09 СЗ 2-2
{3}
н/о н/о +2.2 -0.5 82 -1 -1 1008.7 917.8
08 14.09 С 1 н/о н/о +3.1 -0.6 77 +2 +2 1008.7 918.1
09 14.09 З 2-3
{4}
н/о н/о +3.7 +0.6 80 +1 +1 1008.8 918.3
10 14.09 З 3 н/о н/о +3.5 0.0 78 -0 -0 1009.0 918.5
11 14.09 З 4 н/о н/о +4.2 -0.3 72 0 0 1008.9 918.7
12 14.09 З 5-6
{8}
н/о н/о +4.5 -0.1 72 -0 -0 1008.9 918.7
13 14.09 З 5 н/о н/о +4.7 -0.3 70 0 0 1008.9 918.8
14 14.09 ЮЗ 4 н/о н/о +5.2 +0.2 70 +1 +1 1008.9 918.9
15 14.09 З 7-9
{9}
н/о н/о +5.0 -1.0 65 -0 -0 1008.7 918.7
16 14.09 ЮЗ 5 н/о н/о +4.2 -0.4 72 -1 -1 1008.8 918.5
17 14.09 ЮЗ 4-6
{6}
н/о н/о +3.4 -0.9 73 -1 -1 1008.7 918.2
18 14.09 Ю 5-6
{7}
н/о н/о +3.0 -0.1 80 -2 -2 1008.2 917.6 +0.9 +5.8
19 14.09 Ю 6 н/о н/о +2.9 -0.3 79 -3 -3 1008.0 917.4
20 14.09 ЮЗ 6-8
{8}
н/о н/о +2.6 0.0 83 -3 -3 1007.8 917.1
21 14.09 Ю 7-8
{8}
н/о н/о +2.4 0.0 84 -4 -4 1007.1 916.4
22 14.09 Ю 6 н/о н/о +2.2 -0.3 84 -4 -4 1006.4 915.7
23 14.09 Ю 8 н/о н/о +1.8 -0.4 85 -5 -5 1006.1 915.4
00 15.09 Ю 8-9
{10}
н/о н/о +1.4 -0.4 88 -6 -6 1005.7 914.8
01 15.09 Ю 8-9
{9}
н/о н/о +1.6 +0.4 92 -6 -6 1004.7 914.0
02 15.09 ЮВ 7 н/о н/о +1.2 -0.4 89 -6 -6 1003.7 912.9
03 15.09 ЮВ 9-11
{11}
н/о н/о +0.6 -0.3 94 -7 -7 1002.9 912.0
04 15.09 ЮВ 10-13
{13}
н/о н/о +0.2 +0.2 100 -8 -8 1002.3 911.4
05 15.09 ЮВ 12-15
{15}
н/о н/о +0.6 +0.6 100 -8 -8 1001.4 910.6
06 15.09 ЮВ 12-14
{15}
н/о н/о +0.5 +0.5 100 -8 -8 1000.3 909.6 +0.2 +3.1
07 15.09 ЮВ 14 н/о н/о +0.9 +0.9 100 -8 -8 999.6 909.1
08 15.09 ЮВ 13 н/о н/о +1.4 +1.4 100 -7 -7 998.8 908.5
09 15.09 В 14-18
{18}
н/о н/о +1.3 +1.3 100 -8 -8 998.1 907.8
10 15.09 В 14 н/о н/о +2.0 +2.0 100 -7 -7 997.6 907.7
11 15.09 ЮВ 15 н/о н/о +2.5 +1.8 95 -6 -6 997.2 907.4
12 15.09 В 15-17
{17}
н/о н/о +2.7 +0.9 88 -6 -6 996.9 907.3
13 15.09 В 14-17
{18}
н/о н/о +3.0 +0.4 83 -5 -5 996.6 907.1
14 15.09 В 14-15
{16}
н/о н/о +3.0 0.0 81 -5 -5 996.4 906.9
15 15.09 В 13-14
{17}
н/о н/о +2.8 -0.5 79 -5 -5 996.4 906.8
16 15.09 В 13 н/о н/о +2.0 -1.4 78 -6 -6 996.4 906.6
17 15.09 В 14-17
{17}
н/о н/о +1.9 -1.6 78 -7 -7 996.0 906.2
18 15.09 В 15-17
{18}
н/о н/о +1.6 -1.7 79 -7 -7 996.0 906.1 +0.2 +3.2
19 15.09 В 13 н/о н/о +1.1 -1.9 80 -7 -7 996.5 906.4
20 15.09 В 14 н/о н/о +0.2 -2.4 83 -9 -9 996.6 906.2
21 15.09 В 14-15
{17}
н/о н/о -0.1 -2.5 84 -9 -9 997.1 906.5
22 15.09 В 13-15
{17}
н/о н/о -0.5 -2.5 86 -10 -10 997.4 906.7
23 15.09 В 10 н/о н/о -0.8 -1.2 97 -9 -9 997.9 907.0
00 16.09 СВ 9-10
{12}
н/о н/о -0.7 -0.7 100 -9 -9 998.1 907.3
01 16.09 СВ 11-12
{12}
н/о н/о -0.8 -0.8 100 -10 -10 998.1 907.2
02 16.09 СВ 12-13
{14}
н/о н/о -0.5 -0.6 99 -10 -10 997.8 907.0
03 16.09 СВ 14-15
{15}
н/о н/о -0.7 -0.7 100 -11 -11 997.6 906.8
04 16.09 СВ 16 н/о н/о -0.9 -0.9 100 -11 -11 997.3 906.5
05 16.09 СВ 15 н/о н/о -0.9 -0.9 100 -11 -11 997.2 906.3
06 16.09 СВ 14-16
{17}
н/о н/о -0.6 -0.6 100 -10 -10 997.1 906.3 -1.2 +1.6
07 16.09 СВ 13 н/о н/о -0.2 -0.2 100 -10 -10 996.9 906.3
08 16.09 СВ 15 н/о н/о +0.2 +0.2 100 -10 -10 996.9 906.5
09 16.09 СВ 12-14
{16}
н/о н/о +1.0 +1.0 100 -8 -8 997.4 907.2
10 16.09 СВ 11-13
{15}
н/о н/о +1.7 +1.7 100 -7 -7 997.5 907.5
11 16.09 СВ 9 н/о н/о +2.3 +2.3 100 -5 -5 997.9 908.0

 

Местоположение метеостанции Муонио Лаукукеро (Финляндия): широта 68.06 долгота 24.03 высота над уровнем моря 760 м.

В архиве по умолчанию представлена погода в Муонио Лаукукеро за последнюю неделю. Архивные данные за месяц целиком и за предыдущие месяцы, начиная с января 2011 года, Вы можете получить, выбрав интересующий диапазон дат из раскрывающегося списка и нажав кнопку "Ввод!".


*Определитесь, кто Вы:
робот инопланетянин человек

Внимание! Время в таблицах - всемирное. Для получения местного времени необходимо прибавить поправку, которая равна 1 ч.

Смотрите также архив погоды в соседних городах и на ближайших метеорологических станциях:

Погода в Киттиля Ломполонвуома (Финляндия) (10 км)
Погода в Муонио Саммалтунтури (Финляндия) (11 км)
Погода в Киттила Маторова (Финляндия) (11 км)
Погода в Киттила Кенттарова (Финляндия) (12 км)
Погода в Муонио Аламуонио (Финляндия) (17 км)
Погода в Киттила Левитунтури (Финляндия) (46 км)
Погода в Киттиля (Финляндия) (53 км)
Погода в Киттиля (Финляндия) (58 км)
Погода в Паркаломполо (Швеция) (62 км)
Погода в Наккала (Финляндия) (63 км)

Пояснения к столбцам:

Ветер - указаны скорость ветра в м/с - средняя за 10 мин, порывы в срок и между сроками (в фигурных скобках) и направление, откуда дует ветер: С - северный, СВ - северо-восточный, В - восточный, ЮВ - юго-восточный, Ю - южный, ЮЗ - юго-западный, З - западный, СЗ - северо-западный.
Видимость - горизонтальная дальность видимости в метрах или километрах. При видимости от 1 до 10 км при отсутствии осадков обычно наблюдается дымка, при ухудшении видимости до 1 км и менее - туман. В сухую погоду видимость может ухудшаться дымом, пылью или мглою.
Явления - указаны атмосферные явления, наблюдавшиеся в срок или в последний час перед сроком; фигурными скобками обозначены явления, наблюдавшиеся между сроками (за 1-3 часа до срока); квадратными скобками обозначены град или гололедные отложения с указанием их диаметра в мм.
Облачность - указаны через наклонную черту общая и нижняя облачность в баллах и высота нижней границы облаков в метрах; квадратными скобками обозначены формы облаков: Ci - перистые, Cs - перисто-слоистые, Cc - перисто-кучевые, Ac - высококучевые, As - высокослоистые, Sc - слоисто-кучевые, Ns - слоисто-дождевые, Cu - кучевые, Cb - кучево-дождевые. Подробнее классификацию облаков см. в Атласе облаков (PDF).
T - Температура воздуха - температура, измеренная на высоте 2 м над землей.
Td - Температура точки росы - температура, при понижении до которой содержащийся в воздухе водяной пар достигнет насыщения.
f - Относительная влажность воздуха - влажноcть воздуха, измеренная на высоте 2 м над землей.
Te - Эффективная температура - температура, которую ощущает одетый по сезону человек в тени. Характеристика душности погоды. При расчете учитывается влияние влажности воздуха и скорости ветра на теплоощущения человека.
Tes - Эффективная температура на солнце - температура, которую ощущает человек, с поправкой на солнечный нагрев. Характеристика знойности погоды. Зависит от высоты солнца над горизонтом, облачности и скорости ветра. Ночью, в пасмурную погоду, а также при ветре 12 м/с и более поправка равна нулю.
P - Атмосферное давление - приведенное к уровню моря атмосферное давление.
Po - Атмосферное давление - измеренное на уровне метеостанции атмосферное давление.
Tmin - Минимальная температура - минимум температуры воздуха на высоте 2 м над землей.
Tmax - Максимальная температура - максимум температуры воздуха на высоте 2 м над землей.
R - Количество осадков - Количество выпавших осадков за период времени, мм. При наведении курсора мыши на число - период времени, за который выпало указанное количество осадков.
R24 - Количество осадков - Количество выпавших осадков за 24 часа, мм.
S - Снежный покров - Высота снежного покрова, см. При наведении курсора мыши на число - состояние снежного покрова и степень покрытия местности в баллах.